Starlink 1564

operational
NORAD ID: 46058 Int'l Des: 2020-055 Owner: SPXS Country: US Constellation: starlink
LEOCIRCULARSTARLINK_TYPE

Über Starlink 1564

Beschreibung wird geladen...

Live-Position

3D-Globus wird geladen...

Nächste Überflüge

Höhenverlauf

Altitude vs Time

uPlot chart will show altitude changes over time

Zweizeiliger Elementsatz

1 46058U 20055AH 25352.68345521 -.00000241 00000-0 27245-5 0 9999
2 46058 53.0566 120.7315 0001333 83.5854 276.5287 15.06394871296819
Epoch: 18. Dez. 2025 • Age: 13 hours

Aktueller Status

Höhe 550.5 km
Geschwindigkeit 7.59 km/s
Subsatellitenpunkt 42.15°N, 82.28°E
Startdatum 7. Aug. 2020
Alter 5.3 years
Typ internet

Technische Details

Klassifizierung Payload
Masse 260.00 kg
Trockenmasse 248.00 kg
Gesamtmasse 260.00 kg
Länge 0.20 m
Durchmesser 2.80 m
Spannweite 9.00 m
Form Box + pan
Hersteller SPXS
Bus-Typ Starlink
Phasenstatus In Orbit
Besitzer/Staat SPXS/US

Große Konstellationen

Loading constellations...